Temperature
17 16 16 16 16 17 17 17 17 17 17 17 17 17 17 17 17 17 16 16 16 16 16 16 16 16 15 16 15 15 15 15 15 15 15 15 15 15 15 15 15 15 14
17 16 16 16 16 16 16 16 17 17 17 17 17 16 16 16 17 17 16 16 16 16 16 16 16 16 15 15 15 15 15 15 15 15 15 15 15 15 15 15 15 15 14
17 17 16 16 16 16 16 16 16 17 17 17 17 16 16 16 16 16 16 16 16 16 16 16 16 16 15 15 15 15 15 15 15 15 15 15 15 15 15 15 14 14 14
17 16 16 16 16 16 16 16 16 16 17 17 17 16 16 16 16 16 16 16 16 16 15 16 16 16 15 15 15 15 15 15 15 15 15 15 15 14 14 14 14 14 14
16 16 16 16 16 16 16 16 16 16 16 16 16 16 16 16 16 16 16 16 16 16 16 16 15 15 15 15 15 15 15 15 15 15 15 15 15 14 14 14 14 14 14
16 16 16 16 16 16 16 16 16 16 16 16 16 16 16 16 16 16 16 16 16 16 16 15 15 15 15 15 15 15 15 15 15 15 15 15 15 14 14 14 14 14 14
15 15 15 15 16 16 16 16 16 16 16 16 16 16 16 16 16 16 16 16 16 16 16 15 15 15 15 15 15 15 15 15 15 15 15 15 14 14 14 14 14 14 14
15 15 15 15 15 16 16 16 16 16 16 16 16 16 16 16 16 16 16 16 16 15 15 15 15 15 15 15 15 15 15 15 15 15 15 15 14 14 14 14 14 14 14
15 15 15 15 15 15 15 15 16 16 16 16 16 15 15 15 15 15 15 15 15 15 15 15 15 15 15 15 15 15 15 15 15 15 15 14 14 14 14 14 14 14 14
15 15 15 15 15 15 15 15 15 15 15 15 15 15 15 15 15 15 15 15 15 15 15 15 15 15 15 15 15 15 15 15 15 15 14 14 14 14 14 14 14 14 14
14 14 14 14 14 15 15 15 15 15 15 15 15 15 15 15 15 15 15 15 15 15 15 15 15 15 15 15 14 14 14 14 14 14 14 14 14 14 14 14 14 14 14
14 14 14 14 14 14 14 14 14 14 14 15 15 15 15 15 15 15 15 14 14 14 14 14 14 14 14 14 14 14 14 14 14 14 14 14 14 14 14 14 14 14 14
14 14 14 14 14 14 14 14 14 14 14 14 14 14 14 14 14 14 14 14 14 14 14 14 14 14 14 14 14 14 14 14 14 14 14 14 13 13 13 13 13 13 14
13 13 14 14 14 14 14 14 14 14 14 14 14 14 14 14 14 14 14 14 14 14 14 14 14 14 14 14 14 14 14 14 14 14 14 13 13 13 13 13 13 13 13
13 13 13 13 13 13 13 13 13 13 14 13 14 14 14 14 14 14 13 13 13 13 13 13 13 13 13 13 13 14 14 14 14 13 13 13 13 13 13 13 13 13 13
13 13 13 13 13 13 13 13 13 13 13 13 13 13 13 13 13 13 13 13 13 13 13 13 13 13 13 13 13 13 13 13 13 13 13 13 13 13 13 13 13 13 13
13 13 12 13 13 12 13 12 12 13 13 13 13 13 13 13 13 13 13 13 13 13 13 13 13 13 13 13 13 13 13 13 13 13 13 13 13 13 13 13 13 12 12
12 12 12 12 12 12 12 12 12 12 12 12 12 12 12 12 12 12 12 12 12 12 12 12 12 12 12 12 12 13 13 13 13 13 13 13 13 12 12 12 12 12 12
12 12 12 12 12 12 12 12 12 12 12 12 12 12 12 12 12 12 12 12 12 12 12 12 12 12 12 12 12 12 12 12 12 12 12 12 12 12 12 12 12 12 12
12 12 12 11 11 11 11 11 11 11 12 12 12 12 12 12 12 12 12 11 11 11 11 11 11 11 11 12 12 12 12 12 12 12 12 12 12 12 12 12 12 12 11
11 11 11 11 11 11 11 11 11 11 11 11 11 11 11 11 11 11 11 11 11 11 11 11 11 11 11 11 11 12 12 12 12 12 12 12 12 11 11 11 11 11 11
11 11 11 11 11 11 11 11 11 11 11 11 11 11 11 11 11 11 11 10 11 11 11 10 10 11 11 11 11 10 11 11 11 11 11 11 11 11 11 11 11 11 11
11 11 11 11 11 11 11 11 11 11 11 11 11 10 10 10 10 10 10 10 10 10 10 10 10 10 10 10 10 10 10 10 10 10 11 11 11 11 11 11 11 11 10
11 11 11 11 11 10 10 10 10 10 10 10 10 10 10 10 10 10 10 10 10 10 10 9 9 9 9 9 9 9 9 9 9 9 10 10 10 10 10 10 10 10 10
11 11 10 10 10 10 10 10 10 10 10 10 10 10 10 10 10 10 9 9 9 9 9 9 9 9 9 9 9 9 9 9 9 8 9 9 9 10 10 10 10 10 9
10 10 10 10 10 10 10 10 10 10 9 9 9 9 9 9 9 9 9 9 9 9 9 9 9 9 8 8 8 8 8 8 8 8 8 8 8 9 9 9 9 9 9
Wind_Speed
4 5 11 13 14 14 14 14 14 14 14 14 14 14 15 14 14 13 12 12 12 11 11 11 11 12 12 12 12 12 12 12 12 12 12 11 12 12 12 11 11 10 11
6 8 12 13 13 14 14 14 14 14 14 14 14 14 14 14 13 12 12 11 11 10 10 11 11 11 11 12 12 11 11 11 11 11 10 10 10 10 11 10 9 10 11
7 8 11 13 13 13 14 14 14 14 14 13 13 13 13 13 12 11 11 10 10 10 10 10 10 10 11 10 10 10 10 10 10 9 9 7 7 9 9 9 9 9 9
7 8 10 12 13 13 14 14 14 14 13 13 13 12 12 12 11 11 10 9 9 9 9 9 9 9 10 9 9 9 9 9 8 8 7 5 5 7 8 8 8 8 8
6 7 9 11 12 13 14 14 13 13 12 12 12 12 11 11 10 10 9 9 8 8 8 8 8 8 8 8 8 8 8 7 8 7 6 5 4 5 6 6 6 6 7
5 6 9 11 12 12 13 13 13 12 12 12 11 11 10 10 10 9 9 8 8 7 7 7 7 7 7 7 7 7 7 7 8 7 5 4 3 4 5 5 5 5 5
6 6 8 11 11 11 13 12 12 12 12 11 10 10 10 9 9 8 8 7 7 7 7 6 6 6 7 6 6 6 6 7 7 6 5 4 4 4 4 4 4 4 4
7 6 7 10 10 10 10 11 10 11 11 10 10 9 9 9 8 8 7 7 6 6 6 6 5 5 5 5 5 6 7 7 6 5 5 4 4 4 4 4 3 4 4
6 5 5 8 8 9 10 9 8 8 9 10 9 9 9 8 8 7 7 6 5 5 5 5 5 5 4 4 4 5 6 7 6 5 5 5 6 5 5 4 4 3 4
5 4 4 6 7 7 7 8 7 7 7 8 9 9 8 8 7 7 6 5 5 5 5 4 4 4 4 4 4 4 5 6 6 5 5 6 7 7 6 5 5 4 4
5 4 3 5 5 6 6 6 7 6 5 6 7 8 7 6 6 6 5 5 5 5 4 4 3 3 3 3 3 4 5 4 6 5 6 7 8 8 7 7 6 6 5
5 4 3 5 5 5 5 5 5 5 5 4 5 6 5 5 5 5 5 4 4 4 4 3 3 2 1 1 2 3 3 4 5 6 7 8 9 9 9 8 7 6 6
4 4 3 4 4 4 4 4 3 3 4 3 4 4 4 4 3 3 2 2 2 3 2 2 1 1 1 1 1 2 3 4 5 6 8 9 10 9 9 8 7 7 7
3 3 2 3 4 4 4 4 4 3 2 2 2 3 3 2 2 2 1 1 1 1 1 1 1 1 1 2 2 2 3 4 4 6 7 9 10 10 9 8 8 8 7
2 1 1 3 3 3 3 3 3 3 2 2 2 3 3 2 2 1 1 1 1 2 2 1 1 1 1 2 2 2 3 4 5 6 7 9 10 10 9 9 9 9 8
1 1 1 3 3 3 3 2 2 2 2 2 2 2 3 2 2 2 1 1 1 2 2 2 2 2 1 1 2 2 3 4 5 6 7 8 10 10 10 10 10 9 8
0 1 2 3 3 3 2 2 2 2 2 2 1 1 2 2 2 2 2 1 1 1 1 2 1 1 1 1 2 3 3 4 4 5 6 7 8 9 10 10 10 9 9
1 2 2 2 3 3 3 2 2 2 2 2 1 1 2 2 2 2 2 1 1 0 0 1 1 1 1 2 2 2 2 3 4 5 5 6 6 7 8 9 9 9 8
2 3 3 3 3 3 3 2 2 2 2 2 2 1 2 2 2 1 1 0 0 0 0 1 1 1 2 2 3 3 3 3 3 3 4 5 5 6 6 6 7 7 7
2 3 3 3 3 3 2 2 2 2 1 2 2 2 2 1 2 2 1 0 0 1 0 0 1 1 1 2 2 3 3 3 2 3 3 3 4 5 5 5 4 5 5
2 2 2 3 2 2 2 1 1 1 0 1 1 2 2 2 2 1 1 0 0 1 2 2 1 1 1 1 1 2 3 2 2 2 2 2 2 3 3 4 4 3 3
1 1 2 2 2 2 1 1 1 1 1 1 0 1 2 2 1 1 0 1 1 1 1 1 1 1 1 0 1 1 2 3 2 2 2 2 3 2 2 3 3 3 3
2 2 2 2 2 1 2 2 2 2 2 1 1 1 1 2 1 1 0 1 1 1 1 2 2 2 2 2 1 2 1 3 2 2 1 2 2 2 2 2 3 3 3
3 2 1 1 1 1 2 2 3 1 0 1 1 1 2 2 2 1 1 1 1 1 1 2 2 2 2 2 2 2 2 2 2 2 2 2 1 2 3 2 3 3 4
1 1 2 1 1 1 2 3 3 2 1 0 0 1 2 2 2 2 1 1 1 1 2 1 1 2 2 2 2 1 2 2 2 3 4 3 2 2 2 3 3 3 3
1 0 1 2 1 1 2 2 3 3 2 1 1 1 1 1 1 1 1 1 1 1 2 2 2 2 2 2 2 2 2 2 2 3 4 3 3 2 2 2 2 2 2
Wind_Direction
182 177 162 156 150 146 142 138 134 132 131 131 132 132 132 131 131 132 131 128 124 122 121 119 118 116 116 114 112 110 105 101 98 94 91 90 92 94 91 86 82 81 83
164 165 158 154 152 149 146 141 137 134 132 132 134 133 132 131 130 130 130 131 130 128 126 123 122 120 119 117 115 114 110 106 102 98 93 91 94 98 96 93 88 85 83
149 156 157 155 153 151 148 144 141 138 137 136 136 136 134 134 134 134 133 131 131 131 129 129 127 126 123 121 120 119 116 112 109 105 103 99 101 104 103 99 93 87 84
148 151 155 158 153 152 151 147 145 143 141 140 139 139 139 138 137 136 135 133 131 131 132 132 131 131 131 131 128 126 124 121 119 116 113 107 105 111 109 105 99 93 88
144 146 155 155 156 154 155 151 148 147 146 144 143 142 141 141 143 139 137 136 135 132 133 136 137 137 136 138 138 136 134 132 128 127 125 119 118 123 116 112 105 99 94
143 145 152 150 155 152 154 154 152 151 151 148 146 144 144 143 141 140 135 133 135 136 139 140 141 146 145 145 144 143 142 140 133 132 136 140 141 140 128 121 117 113 107
143 141 150 146 149 149 151 152 156 154 154 152 149 147 147 146 145 144 141 140 142 145 146 146 144 148 154 155 155 153 148 145 140 140 148 160 169 163 148 141 135 130 124
143 132 141 143 145 143 146 151 152 155 154 153 153 152 151 148 148 147 146 147 149 154 155 153 152 155 158 163 165 166 164 155 153 158 167 184 191 183 169 164 159 152 146
128 121 120 134 141 142 137 136 144 149 152 158 157 155 150 147 149 151 152 155 160 161 164 165 164 165 167 167 171 174 175 172 165 173 187 200 203 201 190 182 182 177 172
125 117 120 123 125 127 131 134 135 136 145 151 153 148 145 145 146 149 154 161 165 165 161 160 170 177 179 178 174 174 175 178 180 191 200 207 212 210 204 198 198 197 198
130 125 126 128 121 118 125 127 122 124 126 137 144 140 138 139 144 151 158 164 165 162 158 156 159 177 185 190 194 192 183 182 191 202 210 216 218 218 215 211 209 212 215
157 151 143 137 132 123 122 120 114 115 111 111 124 133 132 136 144 152 160 165 165 166 167 168 162 150 139 163 203 208 199 198 201 212 218 224 226 227 223 219 219 221 223
165 161 154 140 133 131 128 129 111 109 106 103 111 126 130 127 127 131 138 158 162 163 159 166 144 154 168 190 218 227 219 210 216 221 225 229 233 234 232 226 226 227 228
165 168 148 133 138 138 135 137 131 123 114 105 121 129 127 123 131 139 142 156 159 172 163 168 188 219 225 234 233 235 234 228 226 228 231 234 238 239 237 234 233 233 234
162 188 155 142 142 136 130 139 137 141 144 134 136 144 139 145 160 163 169 175 189 193 190 206 225 240 250 254 248 238 238 236 235 233 235 235 236 237 239 244 243 240 241
163 171 145 151 139 128 129 132 143 142 141 131 140 152 147 150 159 163 172 197 222 220 214 212 225 232 248 247 254 249 247 243 239 238 239 238 237 237 239 244 248 247 247
201 124 140 145 127 122 116 107 107 104 103 106 103 145 139 137 153 165 171 194 251 254 233 229 235 229 241 253 257 257 249 242 236 237 236 235 238 239 239 243 249 253 249
140 120 122 120 122 124 121 115 103 95 95 83 59 97 110 123 156 164 169 202 257 275 242 218 220 245 259 263 266 266 259 250 242 237 232 231 233 237 240 242 249 251 249
122 119 112 104 117 118 113 105 93 95 92 84 66 59 76 87 111 133 164 222 227 196 266 254 262 231 261 272 273 274 267 257 252 243 236 230 229 230 232 238 242 243 244
91 104 106 97 105 110 103 97 93 89 77 74 73 41 55 67 88 101 124 76 187 173 226 261 271 261 253 259 281 283 273 261 250 238 238 233 225 221 219 219 228 234 237
92 102 113 119 116 103 98 107 130 146 120 81 57 31 29 32 46 78 91 132 207 202 226 235 256 268 275 288 302 306 300 274 257 246 236 229 227 222 212 211 216 218 229
164 150 136 126 114 113 140 154 144 158 167 202 305 15 21 28 17 34 117 214 233 226 240 243 239 253 281 187 178 266 311 318 288 258 235 223 232 210 205 214 207 214 219
206 208 182 164 138 126 118 105 79 54 35 27 14 342 334 339 327 329 257 228 249 220 231 251 233 226 253 258 217 192 209 249 297 304 281 243 233 217 223 212 213 222 221
223 204 195 172 155 145 130 125 122 128 176 262 255 277 319 330 326 316 292 258 233 235 240 245 231 237 235 260 266 248 242 224 236 290 300 298 267 236 231 232 223 223 221
234 184 187 185 185 160 143 146 143 156 184 272 305 316 328 332 329 323 306 287 265 257 252 251 248 241 232 240 246 249 253 263 239 244 275 298 306 274 258 244 228 220 222
346 23 180 191 211 182 161 157 165 184 190 195 296 290 306 312 303 300 299 269 255 262 265 260 248 242 246 249 251 236 218 221 226 229 253 271 278 287 293 270 242 234 236
Height
1503 1505 1507 1509 1511 1513 1515 1517 1518 1520 1522 1523 1524 1526 1527 1528 1529 1531 1532 1533 1534 1535 1536 1537 1538 1539 1540 1541 1541 1542 1543 1543 1544 1545 1545 1546 1546 1546 1547 1547 1547 1548 1548
1501 1504 1506 1508 1511 1513 1515 1517 1518 1520 1522 1523 1524 1526 1527 1528 1530 1531 1532 1534 1535 1536 1537 1538 1539 1540 1540 1541 1542 1543 1543 1544 1545 1546 1546 1547 1547 1547 1548 1548 1548 1549 1549
1500 1503 1506 1508 1510 1512 1514 1516 1518 1520 1522 1523 1524 1526 1527 1528 1530 1531 1532 1534 1535 1536 1537 1538 1539 1540 1541 1542 1543 1543 1544 1545 1546 1546 1547 1547 1548 1548 1549 1549 1549 1549 1549
1500 1502 1505 1508 1509 1511 1514 1516 1518 1520 1521 1523 1524 1526 1527 1528 1530 1531 1532 1534 1535 1536 1537 1538 1539 1540 1541 1542 1543 1544 1545 1545 1546 1547 1547 1548 1548 1549 1549 1549 1549 1550 1550
1500 1502 1504 1507 1509 1511 1513 1515 1517 1519 1521 1522 1524 1525 1527 1528 1530 1531 1532 1533 1535 1536 1537 1538 1539 1540 1541 1542 1543 1544 1545 1546 1546 1547 1548 1548 1549 1549 1550 1550 1550 1550 1550
1499 1501 1504 1506 1508 1510 1512 1515 1517 1519 1520 1522 1523 1525 1526 1528 1529 1530 1531 1533 1534 1535 1537 1538 1539 1540 1541 1542 1543 1544 1545 1546 1546 1547 1548 1548 1549 1549 1550 1550 1550 1550 1550
1498 1501 1503 1505 1507 1509 1511 1514 1516 1518 1519 1521 1523 1524 1526 1527 1528 1529 1531 1532 1533 1534 1536 1537 1538 1539 1541 1542 1543 1544 1545 1545 1546 1547 1548 1548 1549 1549 1549 1549 1550 1550 1549
1498 1500 1502 1504 1506 1508 1510 1513 1515 1517 1519 1520 1522 1523 1525 1526 1527 1528 1530 1531 1532 1533 1535 1536 1537 1538 1540 1541 1542 1543 1544 1545 1546 1546 1547 1548 1548 1548 1549 1549 1549 1549 1549
1498 1500 1501 1503 1505 1507 1508 1511 1514 1516 1518 1519 1521 1522 1523 1525 1526 1527 1529 1530 1531 1532 1533 1534 1536 1537 1538 1540 1541 1542 1543 1544 1544 1545 1546 1547 1547 1548 1548 1548 1548 1548 1548
1497 1499 1500 1502 1504 1505 1508 1510 1512 1514 1516 1518 1520 1521 1522 1523 1525 1526 1527 1529 1530 1531 1532 1533 1534 1535 1537 1538 1539 1540 1541 1542 1543 1544 1545 1545 1546 1547 1547 1547 1547 1547 1547
1495 1498 1500 1501 1503 1505 1506 1508 1511 1513 1515 1517 1518 1519 1521 1522 1523 1525 1526 1527 1528 1529 1530 1532 1533 1534 1535 1536 1537 1538 1539 1540 1541 1542 1543 1544 1544 1545 1546 1546 1546 1546 1546
1494 1496 1499 1500 1502 1504 1505 1508 1509 1511 1513 1515 1517 1518 1519 1520 1522 1523 1525 1526 1527 1528 1529 1530 1531 1532 1533 1534 1535 1536 1537 1538 1539 1540 1541 1542 1542 1543 1544 1544 1544 1544 1544
1493 1495 1498 1499 1501 1503 1504 1506 1508 1510 1511 1513 1515 1516 1518 1519 1520 1522 1523 1524 1525 1526 1527 1528 1529 1530 1531 1532 1533 1534 1535 1535 1536 1537 1538 1539 1540 1541 1541 1542 1542 1542 1542
1491 1494 1496 1497 1500 1502 1503 1505 1506 1508 1510 1511 1512 1514 1516 1517 1518 1520 1521 1522 1523 1524 1525 1526 1527 1528 1529 1529 1530 1531 1532 1533 1534 1534 1535 1536 1537 1538 1539 1539 1540 1540 1540
1490 1492 1494 1496 1498 1499 1501 1503 1504 1506 1508 1509 1510 1512 1514 1515 1516 1517 1519 1520 1521 1522 1523 1524 1525 1525 1526 1527 1528 1528 1529 1530 1531 1531 1532 1533 1534 1535 1535 1536 1537 1537 1537
1489 1491 1493 1495 1497 1498 1499 1501 1502 1503 1505 1507 1509 1510 1512 1513 1514 1515 1516 1517 1518 1519 1520 1521 1522 1523 1523 1524 1525 1525 1526 1527 1527 1528 1529 1530 1531 1532 1532 1533 1533 1534 1534
1488 1489 1491 1493 1495 1496 1497 1499 1500 1502 1503 1505 1506 1508 1509 1510 1512 1513 1514 1515 1516 1517 1518 1518 1519 1520 1520 1521 1522 1522 1523 1523 1524 1525 1525 1526 1527 1528 1529 1529 1530 1530 1531
1488 1488 1491 1492 1494 1495 1496 1498 1498 1500 1501 1503 1504 1506 1507 1508 1509 1510 1511 1512 1513 1514 1515 1515 1516 1516 1517 1518 1518 1519 1519 1520 1520 1521 1522 1522 1523 1524 1525 1525 1526 1527 1527
1487 1488 1490 1491 1492 1493 1495 1496 1497 1497 1499 1501 1502 1503 1504 1506 1507 1508 1509 1509 1510 1511 1511 1512 1513 1513 1514 1514 1515 1515 1515 1516 1516 1517 1518 1518 1519 1520 1521 1521 1522 1522 1523
1487 1488 1489 1490 1491 1492 1493 1494 1495 1496 1497 1499 1500 1500 1502 1503 1504 1505 1506 1506 1507 1508 1508 1509 1510 1510 1511 1511 1511 1511 1511 1512 1512 1513 1513 1514 1515 1516 1516 1517 1518 1518 1518
1487 1488 1488 1489 1490 1491 1491 1492 1493 1494 1495 1496 1497 1498 1499 1500 1501 1502 1503 1503 1504 1504 1505 1506 1507 1507 1507 1508 1508 1507 1507 1508 1508 1508 1509 1510 1510 1511 1512 1513 1513 1514 1514
1486 1487 1488 1488 1489 1490 1491 1491 1491 1492 1493 1494 1495 1496 1497 1498 1499 1499 1500 1501 1501 1501 1502 1502 1503 1504 1504 1504 1505 1504 1503 1504 1503 1504 1505 1505 1506 1507 1507 1508 1509 1509 1510
1486 1487 1487 1488 1488 1489 1490 1490 1490 1490 1490 1492 1493 1494 1495 1495 1496 1497 1497 1497 1498 1498 1498 1499 1500 1500 1500 1501 1501 1502 1501 1500 1500 1500 1500 1501 1502 1502 1503 1504 1504 1505 1505
1484 1485 1486 1487 1487 1488 1488 1488 1488 1489 1489 1490 1491 1492 1492 1493 1494 1494 1495 1495 1495 1495 1495 1495 1496 1497 1497 1497 1498 1498 1499 1498 1498 1496 1497 1497 1498 1498 1499 1499 1500 1500 1501
1483 1484 1484 1485 1486 1487 1487 1488 1488 1488 1488 1488 1488 1489 1490 1491 1491 1492 1492 1492 1492 1492 1492 1492 1492 1493 1493 1493 1494 1494 1494 1494 1494 1494 1492 1492 1493 1494 1495 1495 1495 1496 1496
1481 1482 1483 1484 1485 1485 1486 1486 1486 1486 1486 1487 1486 1487 1487 1488 1489 1489 1488 1488 1488 1489 1489 1489 1489 1489 1489 1489 1490 1490 1490 1490 1490 1490 1489 1489 1489 1489 1490 1490 1491 1491 1491